Regional Weather Roundup
Issued by NWS

Home | Current Version | Previous Version | Text Only | Print | Product List | Glossary On
Versions: 1 2 3 4 5 6 7 8 9 10 11 12 13 14 15 16 17 18 19 20 21 22 23 24 25 26 27 28 29 30 31 32 33 34 35 36 37 38 39 40 41 42 43 44 45 46 47 48 49 50
000
ASUS43 KIND 020709
RWRIN

WEATHER ROUNDUP FOR INDIANA
NATIONAL WEATHER SERVICE INDIANAPOLIS IN
200 AM EST MON MAR 02 2015

NOTE: "FAIR" INDICATES FEW OR NO CLOUDS BELOW 12,000 FEET WITH NO
SIGNIFICANT WEATHER AND/OR OBSTRUCTIONS TO VISIBILITY.

* - STATION DOES NOT REPORT WEATHER SUCH AS PRECIPITATION OR FOG.

+ - STATION NOT QUALITY CONTROLLED BY THE NATIONAL WEATHER SERVICE.
    USE DATA WITH CAUTION...ESPECIALLY DEWPOINT AND RELATIVE
    HUMIDITY OBSERVATIONS.

INZ001>003-010>013-019-020-020800-
NORTHWEST INDIANA

CITY           SKY/WX    TMP DP  RH WIND       PRES   REMARKS
GARY /AIRPORT/ PTCLDY    19   8  62 W12       30.40R WCI   6
KNOX *+          N/A     12   3  67 W9        30.37R WCI   0
LA PORTE +     CLEAR     20  14  78 NW9       30.36R WCI   9
MICHIGAN CITY+ FAIR      21   9  58 W7        30.38R WCI  13
MONTICELLO +   FAIR      15  11  85 W9        30.39R WCI   3
RENSSELAER +   PTCLDY    14  12  92 W6        30.41R WCI   5
VALPARAISO     CLEAR     15  10  80 W10       30.37R WCI   2

$$

LMZ046-743>745-020800-
SOUTHERN LAKE MICHIGAN

STATION/POSITION TIME  TEMP WIND        PRES
                       AIR  DIR/SP/G
                 (UTC) (F)  (DEG/KT/KT) (MB)
MICHIGAN CITY    0700   19  240/ 12/ 14   N/A

$$

INZ004-005-014>016-021>024-020800-
NORTH CENTRAL INDIANA

CITY           SKY/WX    TMP DP  RH WIND       PRES   REMARKS
GOSHEN         CLOUDY    18  13  80 W14       30.33R WCI   4
LOGANSPORT +   PTCLDY    10   7  85 W8        30.39R WCI  -1
PERU/GRISSOM   PTCLDY    13  10  88 SW10      30.36R WCI  -1
ROCHESTER +    CLEAR     18  14  86 W6        30.36R WCI   9
SOUTH BEND     PTCLDY    14  10  84 W8        30.35R WCI   3
WARSAW +       CLEAR     14  12  92 W7        30.34R WCI   4

$$

INZ006>009-017-018-025>027-020800-
NORTHEAST INDIANA

CITY           SKY/WX    TMP DP  RH WIND       PRES   REMARKS
ANGOLA *+      CLOUDY    19  16  86 W8        30.29R WCI   9
AUBURN +       CLOUDY    21  16  79 W13G20    30.32R WCI   9
FORT WAYNE     PTCLDY    12   9  87 W9        30.34R WCI   0
HUNTINGTON +   CLEAR     17  11  77 W8        30.34R WCI   6

$$

INZ028-029-035-036-043>045-051>053-020800-
WEST CENTRAL INDIANA

CITY           SKY/WX    TMP DP  RH WIND       PRES   REMARKS
CRAWFORDSVL +  PTCLDY    18  12  78 W10       30.41R WCI   6
GREENCASTLE +  PTCLDY    23  18  80 NW5       30.42R WCI  17
LAFAYETTE      PTCLDY    16  13  88 W10       30.42R WCI   4
TERRE HAUTE    PTCLDY    21  16  81 CALM      30.45R

$$

INZ030>032-037>040-046>048-054>057-064-065-020800-
CENTRAL INDIANA

CITY           SKY/WX    TMP DP  RH WIND       PRES   REMARKS
CP ATTERBURY + PTCLDY    27  21  80 W7        30.41S WCI  19
FRANKFORT +    PTCLDY    11   9  92 SW9       30.40S WCI  -1
GREENWOOD *+   CLOUDY    23  16  74 W6        30.40S WCI  16
INDIANAPOLIS   CLOUDY    22  17  81 W10       30.39S WCI  11
-EAGLE CREEK   PTCLDY    21  17  84 W12       30.39R WCI   9
KOKOMO *+      PTCLDY    18  12  79 W14       30.37R WCI   4
MARION +       PTCLDY    13  10  88 W12       30.36S WCI   0
MT COMFORT *+  PTCLDY    21  12  68 W9        30.39S WCI  11
SHELBYVILLE    PTCLDY    24  18  77 W7        30.39R WCI  16
ZIONSVILLE +   PTCLDY    20  16  82 W8        30.39S WCI  11

$$

INZ033-034-041-042-049-050-058-059-020800-
EAST CENTRAL INDIANA

CITY           SKY/WX    TMP DP  RH WIND       PRES   REMARKS
MUNCIE         PTCLDY    19  15  84 W10       30.36R WCI   7

$$

INZ060-061-067>069-081>083-085>088-020800-
SOUTHWEST INDIANA

CITY           SKY/WX    TMP DP  RH WIND       PRES   REMARKS
EVANSVILLE     CLEAR     29  22  75 N10       30.46R WCI  20
HUNTINGBURG *+ PTCLDY    27  19  74 N9        30.45R WCI  17
WASHINGTON +   CLEAR     23  19  83 NW8       30.45S WCI  14

$$

INZ062-063-066-070>080-084-089>092-020800-
SOUTH CENTRAL AND SOUTHEAST INDIANA

CITY           SKY/WX    TMP DP  RH WIND       PRES   REMARKS
BLOOMINGTON    PTCLDY    23  19  85 W5        30.42R WCI  17
NORTH VERNON + CLOUDY    28  27  93 NW13      30.40R WCI  18
SEYMOUR +      MOCLDY    28  23  80 NW9       30.41R WCI  20

$$



USA.gov is the U.S. government's official web portal to all federal, state and local government web resources and services.